This demonstration page uses our WeatherBlox Daily Observations layout. Learn more.

Left ArrowRight Arrow

39.29038, -76.61219

Hourly Observations for July 28, 2021

Temp ( °F °C ) Dew Point ( °F °C ) Humidity (%) Winds ( mph kmh ) Pressure ( in mb ) Visibility ( mi km ) Precip ( " mm )
12:54 am 00:54 Clear 75 23.9 62 16.7 64 64 W 3 6 29.94 1014 10 16 N/A
1:54 am 01:54 Clear 73 22.8 63 17.2 71 71 W 3 6 29.94 1014 10 16 N/A
2:54 am 02:54 Mostly Clear 72 22.2 63 17.2 73 73 WSW 3 6 29.93 1014 10 16 N/A
3:54 am 03:54 Clear 72 22.2 62 16.7 71 71 W 5 7 29.94 1014 10 16 N/A
4:54 am 04:54 Clear 73 22.8 62 16.7 69 69 N N/A 29.95 1014 10 16 N/A
5:54 am 05:54 Clear 74 23.3 61 16.1 64 64 NW 7 11 29.97 1015 10 16 N/A
6:54 am 06:54 Mostly Sunny 77 25 62 16.7 60 60 VRB 3 6 29.98 1015 10 16 N/A
7:54 am 07:54 Sunny 80 26.7 62 16.7 54 54 N 5 7 29.98 1015 10 16 N/A
8:54 am 08:54 Sunny 83 28.3 62 16.7 49 49 VRB 5 7 29.98 1015 10 16 N/A
9:54 am 09:54 Sunny 86 30 63 17.2 46 46 VRB 7 11 29.98 1015 10 16 N/A
10:54 am 10:54 Sunny 88 31.1 62 16.7 42 42 VRB 3 6 29.98 1015 10 16 N/A
11:54 am 11:54 Mostly Sunny 91 32.8 62 16.7 38 38 VRB 3 6 29.97 1015 10 16 N/A
12:54 pm 12:54 Mostly Sunny 92 33.3 62 16.7 37 37 WNW 6 9 29.96 1015 10 16 N/A
1:54 pm 13:54 Partly Cloudy 89 31.7 63 17.2 42 42 E 3 6 29.96 1014 10 16 N/A
2:54 pm 14:54 Partly Cloudy 90 32.2 65 18.3 44 44 E 10 17 29.96 1014 10 16 N/A
3:54 pm 15:54 Partly Cloudy 90 32.2 65 18.3 44 44 E 8 13 29.95 1014 10 16 N/A
4:54 pm 16:54 Partly Cloudy 90 32.2 65 18.3 44 44 ENE 9 15 29.94 1014 10 16 N/A
5:54 pm 17:54 Partly Cloudy 88 31.1 65 18.3 46 46 ENE 9 15 29.95 1014 10 16 N/A
6:54 pm 18:54 Partly Cloudy 87 30.6 65 18.3 48 48 E 12 19 29.94 1014 10 16 N/A
7:54 pm 19:54 Mostly Cloudy 84 28.9 65 18.3 53 53 E 8 13 29.95 1014 10 16 N/A
8:54 pm 20:54 Mostly Cloudy 82 27.8 66 18.9 58 58 E 10 17 29.96 1015 10 16 N/A
9:54 pm 21:54 Mostly Cloudy 82 27.8 67 19.4 60 60 E 12 19 29.98 1015 10 16 N/A
10:54 pm 22:54 Mostly Cloudy 79 26.1 68 20 69 69 ESE 7 11 30.00 1016 10 16 N/A
11:54 pm 23:54 Mostly Clear 78 25.6 68 20 71 71 ESE 6 9 30.00 1016 10 16 N/A

Powered by AerisWeather